Time,TemperatureF,DewpointF,PressureIn,WindDirection,WindDirectionDegrees,WindSpeedMPH,WindSpeedGustMPH,Humidity,HourlyPrecipIn,Conditions,Clouds,dailyrainin,SoftwareType,DateUTC
2013-05-12 00:02:00,71.5,60.8,29.94,NNE,26,0.0,0.0,69,0.00,,---,0.00,VWS V14.01,2013-05-12 07:02:00,
2013-05-12 00:07:00,71.4,60.7,29.95,NNE,26,0.0,0.0,69,0.00,,---,0.00,VWS V14.01,2013-05-12 07:07:00,
2013-05-12 00:12:00,71.2,60.9,29.94,NNE,26,0.0,0.0,70,0.00,,---,0.00,VWS V14.01,2013-05-12 07:12:00,
2013-05-12 00:17:00,71.1,60.8,29.95,NNE,26,0.0,0.0,70,0.00,,---,0.00,VWS V14.01,2013-05-12 07:17:00,
2013-05-12 00:22:00,71.0,60.7,29.95,NNE,26,0.0,0.0,70,0.00,,---,0.00,VWS V14.01,2013-05-12 07:22:00,
2013-05-12 00:27:00,71.0,61.1,29.95,ENE,59,0.0,0.0,71,0.00,,---,0.00,VWS V14.01,2013-05-12 07:27:00,
2013-05-12 00:32:00,70.9,61.0,29.95,NW,309,1.0,0.0,71,0.00,,---,0.00,VWS V14.01,2013-05-12 07:32:00,
2013-05-12 00:37:00,70.9,61.0,29.95,NW,309,1.0,0.0,71,0.00,,---,0.00,VWS V14.01,2013-05-12 07:37:00,
2013-05-12 00:42:00,71.0,61.1,29.95,NW,309,0.0,0.0,71,0.00,,---,0.00,VWS V14.01,2013-05-12 07:42:00,
2013-05-12 00:47:00,70.9,61.0,29.95,NW,309,0.0,0.0,71,0.00,,---,0.00,VWS V14.01,2013-05-12 07:47:00,
2013-05-12 00:52:00,70.8,61.3,29.95,NW,309,0.0,0.0,72,0.00,,---,0.00,VWS V14.01,2013-05-12 07:52:00,
2013-05-12 00:57:00,70.6,61.1,29.95,NW,309,0.0,0.0,72,0.00,,---,0.00,VWS V14.01,2013-05-12 07:57:00,
2013-05-12 01:02:00,70.4,61.3,29.95,NW,309,0.0,0.0,73,0.00,,---,0.00,VWS V14.01,2013-05-12 08:02:00,
2013-05-12 01:07:00,70.3,61.2,29.95,NW,309,0.0,0.0,73,0.00,,---,0.00,VWS V14.01,2013-05-12 08:07:00,
2013-05-12 01:12:00,70.1,61.0,29.95,North,351,0.0,0.0,73,0.00,,---,0.00,VWS V14.01,2013-05-12 08:12:00,
2013-05-12 01:17:00,70.0,61.3,29.95,North,351,0.0,0.0,74,0.00,,---,0.00,VWS V14.01,2013-05-12 08:17:00,
2013-05-12 01:22:00,69.8,61.2,29.95,North,351,0.0,0.0,74,0.00,,---,0.00,VWS V14.01,2013-05-12 08:22:00,
2013-05-12 01:27:00,69.7,61.0,29.95,North,351,0.0,0.0,74,0.00,,---,0.00,VWS V14.01,2013-05-12 08:27:00,
2013-05-12 01:32:00,69.5,60.9,29.95,North,355,0.0,0.0,74,0.00,,---,0.00,VWS V14.01,2013-05-12 08:32:00,
2013-05-12 01:37:00,69.4,60.8,29.95,North,351,0.0,0.0,74,0.00,,---,0.00,VWS V14.01,2013-05-12 08:37:00,
2013-05-12 01:42:00,69.2,61.0,29.95,North,351,0.0,0.0,75,0.00,,---,0.00,VWS V14.01,2013-05-12 08:42:00,
2013-05-12 01:47:00,69.2,61.0,29.95,North,351,0.0,0.0,75,0.00,,---,0.00,VWS V14.01,2013-05-12 08:47:00,
2013-05-12 01:53:00,69.1,60.8,29.95,North,351,0.0,0.0,75,0.00,,---,0.00,VWS V14.01,2013-05-12 08:53:00,
2013-05-12 01:58:00,68.9,61.0,29.95,North,351,0.0,0.0,76,0.00,,---,0.00,VWS V14.01,2013-05-12 08:58:00,
2013-05-12 02:03:00,68.8,60.9,29.95,North,351,0.0,0.0,76,0.00,,---,0.00,VWS V14.01,2013-05-12 09:03:00,
2013-05-12 02:08:00,68.7,60.8,29.95,North,351,0.0,0.0,76,0.00,,---,0.00,VWS V14.01,2013-05-12 09:08:00,
2013-05-12 02:13:00,68.5,60.6,29.95,North,351,0.0,0.0,76,0.00,,---,0.00,VWS V14.01,2013-05-12 09:13:00,
2013-05-12 02:18:00,68.3,60.8,29.95,North,351,0.0,0.0,77,0.00,,---,0.00,VWS V14.01,2013-05-12 09:18:00,
2013-05-12 02:23:00,68.2,60.7,29.94,North,351,0.0,0.0,77,0.00,,---,0.00,VWS V14.01,2013-05-12 09:23:00,
2013-05-12 02:28:00,68.1,60.6,29.94,North,351,0.0,0.0,77,0.00,,---,0.00,VWS V14.01,2013-05-12 09:28:00,
2013-05-12 02:33:00,68.1,60.3,29.94,North,351,0.0,0.0,76,0.00,,---,0.00,VWS V14.01,2013-05-12 09:33:00,
2013-05-12 02:38:00,68.0,60.5,29.94,North,351,0.0,0.0,77,0.00,,---,0.00,VWS V14.01,2013-05-12 09:38:00,
2013-05-12 02:43:00,67.9,60.4,29.94,North,351,0.0,0.0,77,0.00,,---,0.00,VWS V14.01,2013-05-12 09:43:00,
2013-05-12 02:48:00,67.8,60.0,29.94,North,351,0.0,0.0,76,0.00,,---,0.00,VWS V14.01,2013-05-12 09:48:00,
2013-05-12 02:53:00,67.7,59.9,29.94,North,351,0.0,0.0,76,0.00,,---,0.00,VWS V14.01,2013-05-12 09:53:00,
2013-05-12 02:58:00,67.7,59.9,29.94,North,351,0.0,0.0,76,0.00,,---,0.00,VWS V14.01,2013-05-12 09:58:00,
2013-05-12 03:03:00,67.7,59.9,29.94,North,351,0.0,0.0,76,0.00,,---,0.00,VWS V14.01,2013-05-12 10:03:00,
2013-05-12 03:08:00,67.8,60.3,29.94,North,351,0.0,0.0,77,0.00,,---,0.00,VWS V14.01,2013-05-12 10:08:00,
2013-05-12 03:13:00,67.7,60.2,29.95,North,351,0.0,0.0,77,0.00,,---,0.00,VWS V14.01,2013-05-12 10:13:00,
2013-05-12 03:18:00,67.5,59.7,29.95,NNE,26,0.0,0.0,76,0.00,,---,0.00,VWS V14.01,2013-05-12 10:18:00,
2013-05-12 03:23:00,67.3,59.8,29.95,NNE,26,0.0,0.0,77,0.00,,---,0.00,VWS V14.01,2013-05-12 10:23:00,
2013-05-12 03:28:00,67.2,59.8,29.95,NNE,26,0.0,0.0,77,0.00,,---,0.00,VWS V14.01,2013-05-12 10:28:00,
2013-05-12 03:33:00,67.0,59.6,29.95,NNE,26,0.0,0.0,77,0.00,,---,0.00,VWS V14.01,2013-05-12 10:33:00,
2013-05-12 03:39:00,66.9,59.5,29.94,NNE,26,0.0,0.0,77,0.00,,---,0.00,VWS V14.01,2013-05-12 10:39:00,
2013-05-12 03:44:00,66.8,59.7,29.95,NNE,26,0.0,0.0,78,0.00,,---,0.00,VWS V14.01,2013-05-12 10:44:00,
2013-05-12 03:49:00,66.5,59.4,29.94,NNE,26,0.0,0.0,78,0.00,,---,0.00,VWS V14.01,2013-05-12 10:49:00,
2013-05-12 03:54:00,66.4,59.7,29.94,NNE,26,0.0,0.0,79,0.00,,---,0.00,VWS V14.01,2013-05-12 10:54:00,
2013-05-12 03:59:00,66.1,59.4,29.94,NNE,26,0.0,0.0,79,0.00,,---,0.00,VWS V14.01,2013-05-12 10:59:00,
2013-05-12 04:04:00,66.0,59.7,29.94,NNE,26,0.0,0.0,80,0.00,,---,0.00,VWS V14.01,2013-05-12 11:04:00,
2013-05-12 04:09:00,65.8,59.1,29.94,NNE,26,0.0,0.0,79,0.00,,---,0.00,VWS V14.01,2013-05-12 11:09:00,
2013-05-12 04:14:00,65.7,59.4,29.94,NNE,26,0.0,0.0,80,0.00,,---,0.00,VWS V14.01,2013-05-12 11:14:00,
2013-05-12 04:19:00,65.6,59.3,29.94,NNE,26,0.0,0.0,80,0.00,,---,0.00,VWS V14.01,2013-05-12 11:19:00,
2013-05-12 04:24:00,65.6,58.9,29.94,NNE,26,0.0,0.0,79,0.00,,---,0.00,VWS V14.01,2013-05-12 11:24:00,
2013-05-12 04:29:00,65.5,59.2,29.94,NNE,26,0.0,0.0,80,0.00,,---,0.00,VWS V14.01,2013-05-12 11:29:00,
2013-05-12 04:34:00,65.5,59.2,29.94,NNE,26,0.0,0.0,80,0.00,,---,0.00,VWS V14.01,2013-05-12 11:34:00,
2013-05-12 04:39:00,65.4,58.7,29.93,NNE,26,0.0,0.0,79,0.00,,---,0.00,VWS V14.01,2013-05-12 11:39:00,
2013-05-12 04:44:00,65.3,58.6,29.93,NNE,26,0.0,0.0,79,0.00,,---,0.00,VWS V14.01,2013-05-12 11:44:00,
2013-05-12 04:49:00,65.3,59.0,29.93,NNE,26,0.0,0.0,80,0.00,,---,0.00,VWS V14.01,2013-05-12 11:49:00,
2013-05-12 04:54:00,65.3,59.0,29.93,NNE,26,0.0,0.0,80,0.00,,---,0.00,VWS V14.01,2013-05-12 11:54:00,
2013-05-12 04:59:00,65.2,58.9,29.93,NNE,26,0.0,0.0,80,0.00,,---,0.00,VWS V14.01,2013-05-12 11:59:00,
2013-05-12 05:04:00,65.2,58.9,29.93,NNE,26,1.0,0.0,80,0.00,,---,0.00,VWS V14.01,2013-05-12 12:04:00,
2013-05-12 05:09:00,65.0,58.7,29.93,NNE,26,0.0,0.0,80,0.00,,---,0.00,VWS V14.01,2013-05-12 12:09:00,
2013-05-12 05:14:00,64.9,58.6,29.93,NNE,26,0.0,0.0,80,0.00,,---,0.00,VWS V14.01,2013-05-12 12:14:00,
2013-05-12 05:19:00,64.9,58.6,29.93,NNE,26,0.0,0.0,80,0.00,,---,0.00,VWS V14.01,2013-05-12 12:19:00,
2013-05-12 05:25:00,64.9,58.6,29.93,NNE,26,0.0,0.0,80,0.00,,---,0.00,VWS V14.01,2013-05-12 12:25:00,
2013-05-12 05:30:00,64.8,58.5,29.93,NNE,26,0.0,0.0,80,0.00,,---,0.00,VWS V14.01,2013-05-12 12:30:00,
2013-05-12 05:35:00,64.7,58.4,29.93,NE,40,0.0,0.0,80,0.00,,---,0.00,VWS V14.01,2013-05-12 12:35:00,
2013-05-12 05:40:00,64.6,58.3,29.93,North,5,0.0,0.0,80,0.00,,---,0.00,VWS V14.01,2013-05-12 12:40:00,
2013-05-12 05:45:00,64.5,58.2,29.94,WNW,292,0.0,0.0,80,0.00,,---,0.00,VWS V14.01,2013-05-12 12:45:00,
2013-05-12 05:50:00,64.5,57.8,29.94,WNW,292,0.0,0.0,79,0.00,,---,0.00,VWS V14.01,2013-05-12 12:50:00,
2013-05-12 05:55:00,64.4,57.8,29.94,WNW,292,0.0,0.0,79,0.00,,---,0.00,VWS V14.01,2013-05-12 12:55:00,
2013-05-12 06:00:00,64.4,57.4,29.94,WNW,292,0.0,0.0,78,0.00,,---,0.00,VWS V14.01,2013-05-12 13:00:00,
2013-05-12 06:05:00,64.4,57.8,29.94,WNW,292,0.0,0.0,79,0.00,,---,0.00,VWS V14.01,2013-05-12 13:05:00,
2013-05-12 06:10:00,64.4,57.4,29.94,WNW,292,0.0,0.0,78,0.00,,---,0.00,VWS V14.01,2013-05-12 13:10:00,
2013-05-12 06:15:00,64.6,57.6,29.94,WNW,292,0.0,0.0,78,0.00,,---,0.00,VWS V14.01,2013-05-12 13:15:00,
2013-05-12 06:20:00,64.7,57.3,29.94,WNW,292,0.0,0.0,77,0.00,,---,0.00,VWS V14.01,2013-05-12 13:20:00,
2013-05-12 06:25:00,64.7,57.3,29.95,WNW,292,0.0,0.0,77,0.00,,---,0.00,VWS V14.01,2013-05-12 13:25:00,
2013-05-12 06:30:00,64.7,57.3,29.95,WNW,292,0.0,0.0,77,0.00,,---,0.00,VWS V14.01,2013-05-12 13:30:00,
2013-05-12 06:35:00,64.9,57.5,29.95,WNW,292,0.0,0.0,77,0.00,,---,0.00,VWS V14.01,2013-05-12 13:35:00,
2013-05-12 06:40:00,64.8,57.1,29.95,WNW,292,0.0,0.0,76,0.00,,---,0.00,VWS V14.01,2013-05-12 13:40:00,
2013-05-12 06:45:00,64.7,57.3,29.95,WNW,292,0.0,0.0,77,0.00,,---,0.00,VWS V14.01,2013-05-12 13:45:00,
2013-05-12 06:50:00,64.6,57.2,29.95,WNW,292,0.0,0.0,77,0.00,,---,0.00,VWS V14.01,2013-05-12 13:50:00,
2013-05-12 06:55:00,64.7,57.3,29.95,WNW,292,0.0,0.0,77,0.00,,---,0.00,VWS V14.01,2013-05-12 13:55:00,
2013-05-12 07:00:00,64.9,57.9,29.95,WNW,292,0.0,0.0,78,0.00,,---,0.00,VWS V14.01,2013-05-12 14:00:00,
2013-05-12 07:05:00,65.0,57.6,29.95,WNW,292,0.0,0.0,77,0.00,,---,0.00,VWS V14.01,2013-05-12 14:05:00,
2013-05-12 07:10:00,65.1,57.7,29.96,WNW,292,0.0,0.0,77,0.00,,---,0.00,VWS V14.01,2013-05-12 14:10:00,
2013-05-12 07:16:00,65.1,57.7,29.96,WNW,292,0.0,0.0,77,0.00,,---,0.00,VWS V14.01,2013-05-12 14:16:00,
2013-05-12 07:21:00,65.2,57.5,29.96,WNW,292,0.0,0.0,76,0.00,,---,0.00,VWS V14.01,2013-05-12 14:21:00,
2013-05-12 07:26:00,65.4,57.7,29.96,WNW,292,0.0,0.0,76,0.00,,---,0.00,VWS V14.01,2013-05-12 14:26:00,
2013-05-12 07:31:00,65.6,57.8,29.96,WNW,292,0.0,0.0,76,0.00,,---,0.00,VWS V14.01,2013-05-12 14:31:00,
2013-05-12 07:36:00,65.8,58.0,29.96,WNW,292,0.0,0.0,76,0.00,,---,0.00,VWS V14.01,2013-05-12 14:36:00,
2013-05-12 07:41:00,65.9,58.1,29.96,WNW,292,0.0,0.0,76,0.00,,---,0.00,VWS V14.01,2013-05-12 14:41:00,
2013-05-12 07:46:00,66.1,58.3,29.96,WNW,292,0.0,0.0,76,0.00,,---,0.00,VWS V14.01,2013-05-12 14:46:00,
2013-05-12 07:51:00,66.3,58.5,29.96,WNW,292,0.0,0.0,76,0.00,,---,0.00,VWS V14.01,2013-05-12 14:51:00,
2013-05-12 07:56:00,66.6,58.8,29.97,WNW,292,0.0,0.0,76,0.00,,---,0.00,VWS V14.01,2013-05-12 14:56:00,
2013-05-12 08:01:00,67.0,58.8,29.97,WNW,292,0.0,0.0,75,0.00,,---,0.00,VWS V14.01,2013-05-12 15:01:00,
2013-05-12 08:06:00,67.2,58.6,29.97,WNW,292,0.0,0.0,74,0.00,,---,0.00,VWS V14.01,2013-05-12 15:06:00,
2013-05-12 08:11:00,67.5,58.9,29.97,WNW,292,0.0,0.0,74,0.00,,---,0.00,VWS V14.01,2013-05-12 15:11:00,
2013-05-12 08:16:00,68.3,59.7,29.97,North,355,0.0,0.0,74,0.00,,---,0.00,VWS V14.01,2013-05-12 15:16:00,
2013-05-12 08:21:00,69.1,59.7,29.97,North,355,0.0,0.0,72,0.00,,---,0.00,VWS V14.01,2013-05-12 15:21:00,
2013-05-12 08:26:00,70.2,60.4,29.98,North,5,0.0,0.0,71,0.00,,---,0.00,VWS V14.01,2013-05-12 15:26:00,
2013-05-12 08:31:00,71.0,59.9,29.98,North,5,0.0,0.0,68,0.00,,---,0.00,VWS V14.01,2013-05-12 15:31:00,
2013-05-12 08:36:00,71.5,60.0,29.98,North,5,0.0,0.0,67,0.00,,---,0.00,VWS V14.01,2013-05-12 15:36:00,
2013-05-12 08:41:00,71.6,59.2,29.98,NW,309,0.0,0.0,65,0.00,,---,0.00,VWS V14.01,2013-05-12 15:41:00,
2013-05-12 08:46:00,71.9,58.2,29.98,WNW,284,1.0,0.0,62,0.00,,---,0.00,VWS V14.01,2013-05-12 15:46:00,
2013-05-12 08:51:00,72.2,58.9,29.98,WNW,284,0.0,0.0,63,0.00,,---,0.00,VWS V14.01,2013-05-12 15:51:00,
2013-05-12 08:57:00,72.5,58.8,29.98,WNW,290,0.0,0.0,62,0.00,,---,0.00,VWS V14.01,2013-05-12 15:57:00,
2013-05-12 09:02:00,72.9,59.1,29.98,WNW,302,0.0,0.0,62,0.00,,---,0.00,VWS V14.01,2013-05-12 16:02:00,
2013-05-12 09:07:00,73.2,58.5,29.98,WNW,302,0.0,0.0,60,0.00,,---,0.00,VWS V14.01,2013-05-12 16:07:00,
2013-05-12 09:12:00,73.5,59.2,29.98,WNW,302,0.0,0.0,61,0.00,,---,0.00,VWS V14.01,2013-05-12 16:12:00,
2013-05-12 09:17:00,73.8,60.0,29.98,WNW,302,0.0,0.0,62,0.00,,---,0.00,VWS V14.01,2013-05-12 16:17:00,
2013-05-12 09:22:00,74.1,58.9,29.98,NW,310,0.0,0.0,59,0.00,,---,0.00,VWS V14.01,2013-05-12 16:22:00,
2013-05-12 09:27:00,74.6,58.9,29.98,WNW,303,0.0,0.0,58,0.00,,---,0.00,VWS V14.01,2013-05-12 16:27:00,
2013-05-12 09:32:00,75.0,59.7,29.98,WNW,300,0.0,0.0,59,0.00,,---,0.00,VWS V14.01,2013-05-12 16:32:00,
2013-05-12 09:37:00,75.4,59.6,29.98,WNW,298,0.0,0.0,58,0.00,,---,0.00,VWS V14.01,2013-05-12 16:37:00,
2013-05-12 09:42:00,75.7,57.4,29.98,NW,321,1.0,0.0,53,0.00,,---,0.00,VWS V14.01,2013-05-12 16:42:00,
2013-05-12 09:47:00,76.1,58.3,29.98,East,86,0.0,0.0,54,0.00,,---,0.00,VWS V14.01,2013-05-12 16:47:00,
2013-05-12 09:52:00,76.6,57.7,29.98,ENE,77,0.0,0.0,52,0.00,,---,0.00,VWS V14.01,2013-05-12 16:52:00,
2013-05-12 09:57:00,77.0,59.1,29.98,South,170,0.0,0.0,54,0.00,,---,0.00,VWS V14.01,2013-05-12 16:57:00,
2013-05-12 10:02:00,77.5,58.0,29.98,NE,34,0.0,0.0,51,0.00,,---,0.00,VWS V14.01,2013-05-12 17:02:00,
2013-05-12 10:07:00,78.1,59.6,29.98,South,180,0.0,0.0,53,0.00,,---,0.00,VWS V14.01,2013-05-12 17:07:00,
2013-05-12 10:12:00,78.5,59.4,29.97,SSE,164,0.0,0.0,52,0.00,,---,0.00,VWS V14.01,2013-05-12 17:12:00,
2013-05-12 10:17:00,79.1,60.0,29.97,SE,129,1.0,0.0,52,0.00,,---,0.00,VWS V14.01,2013-05-12 17:17:00,
2013-05-12 10:22:00,79.6,59.3,29.97,South,190,0.0,0.0,50,0.00,,---,0.00,VWS V14.01,2013-05-12 17:22:00,
2013-05-12 10:27:00,80.2,59.9,29.97,SSE,167,0.0,0.0,50,0.00,,---,0.00,VWS V14.01,2013-05-12 17:27:00,
2013-05-12 10:32:00,80.9,58.8,29.97,SE,138,0.0,0.0,47,0.00,,---,0.00,VWS V14.01,2013-05-12 17:32:00,
2013-05-12 10:37:00,81.6,57.6,29.97,NW,313,0.0,0.0,44,0.00,,---,0.00,VWS V14.01,2013-05-12 17:37:00,
2013-05-12 10:42:00,82.3,56.3,29.97,NW,311,0.0,0.0,41,0.00,,---,0.00,VWS V14.01,2013-05-12 17:42:00,
2013-05-12 10:48:00,83.1,55.6,29.97,WNW,292,1.0,0.0,39,0.00,,---,0.00,VWS V14.01,2013-05-12 17:48:00,
2013-05-12 10:53:00,84.1,55.0,29.97,NNE,15,0.0,0.0,37,0.00,,---,0.00,VWS V14.01,2013-05-12 17:53:00,
2013-05-12 10:58:00,85.0,53.5,29.97,NW,312,2.0,0.0,34,0.00,,---,0.00,VWS V14.01,2013-05-12 17:58:00,
2013-05-12 11:03:00,85.8,54.2,29.97,WSW,238,0.0,0.0,34,0.00,,---,0.00,VWS V14.01,2013-05-12 18:03:00,
2013-05-12 11:08:00,86.3,53.8,29.97,NNW,346,0.0,0.0,33,0.00,,---,0.00,VWS V14.01,2013-05-12 18:08:00,
2013-05-12 11:13:00,86.7,53.3,29.98,NNW,337,2.0,0.0,32,0.00,,---,0.00,VWS V14.01,2013-05-12 18:13:00,
2013-05-12 11:18:00,87.0,52.7,29.98,North,350,0.0,0.0,31,0.00,,---,0.00,VWS V14.01,2013-05-12 18:18:00,
2013-05-12 11:23:00,87.4,54.0,29.97,WNW,293,1.0,0.0,32,0.00,,---,0.00,VWS V14.01,2013-05-12 18:23:00,
2013-05-12 11:28:00,87.5,52.3,29.97,NW,317,1.0,0.0,30,0.00,,---,0.00,VWS V14.01,2013-05-12 18:28:00,
2013-05-12 11:33:00,87.9,52.6,29.97,NNW,332,0.0,0.0,30,0.00,,---,0.00,VWS V14.01,2013-05-12 18:33:00,
2013-05-12 11:38:00,88.3,50.1,29.98,WNW,284,0.0,0.0,27,0.00,,---,0.00,VWS V14.01,2013-05-12 18:38:00,
2013-05-12 11:43:00,88.7,51.4,29.97,NNW,341,1.0,0.0,28,0.00,,---,0.00,VWS V14.01,2013-05-12 18:43:00,
2013-05-12 11:48:00,89.4,50.0,29.97,NNE,12,0.0,0.0,26,0.00,,---,0.00,VWS V14.01,2013-05-12 18:48:00,
2013-05-12 11:53:00,89.7,50.3,29.98,South,189,3.0,0.0,26,0.00,,---,0.00,VWS V14.01,2013-05-12 18:53:00,
2013-05-12 11:58:00,89.9,50.5,29.97,NNE,16,0.0,0.0,26,0.00,,---,0.00,VWS V14.01,2013-05-12 18:58:00,
2013-05-12 12:03:00,89.9,48.3,29.98,WSW,256,0.0,0.0,24,0.00,,---,0.00,VWS V14.01,2013-05-12 19:03:00,
2013-05-12 12:08:00,90.1,49.6,29.97,NE,44,0.0,0.0,25,0.00,,---,0.00,VWS V14.01,2013-05-12 19:08:00,
2013-05-12 12:13:00,90.3,48.7,29.97,North,360,0.0,0.0,24,0.00,,---,0.00,VWS V14.01,2013-05-12 19:13:00,
2013-05-12 12:19:00,90.2,47.4,29.97,WNW,288,2.0,0.0,23,0.00,,---,0.00,VWS V14.01,2013-05-12 19:19:00,
2013-05-12 12:24:00,90.1,47.3,29.97,NW,310,1.0,0.0,23,0.00,,---,0.00,VWS V14.01,2013-05-12 19:24:00,
2013-05-12 12:29:00,90.2,47.4,29.97,WNW,285,3.0,0.0,23,0.00,,---,0.00,VWS V14.01,2013-05-12 19:29:00,
2013-05-12 12:34:00,90.7,46.7,29.97,WNW,287,2.0,0.0,22,0.00,,---,0.00,VWS V14.01,2013-05-12 19:34:00,
2013-05-12 12:39:00,90.8,50.2,29.97,NW,321,0.0,0.0,25,0.00,,---,0.00,VWS V14.01,2013-05-12 19:39:00,
2013-05-12 12:44:00,91.1,48.2,29.97,South,186,1.0,0.0,23,0.00,,---,0.00,VWS V14.01,2013-05-12 19:44:00,
2013-05-12 12:49:00,91.2,45.8,29.97,East,93,0.0,0.0,21,0.00,,---,0.00,VWS V14.01,2013-05-12 19:49:00,
2013-05-12 12:54:00,91.3,45.9,29.97,SW,227,0.0,0.0,21,0.00,,---,0.00,VWS V14.01,2013-05-12 19:54:00,
2013-05-12 12:59:00,91.3,47.2,29.97,South,184,0.0,0.0,22,0.00,,---,0.00,VWS V14.01,2013-05-12 19:59:00,
2013-05-12 13:04:00,91.7,47.5,29.96,West,281,2.0,0.0,22,0.00,,---,0.00,VWS V14.01,2013-05-12 20:04:00,
2013-05-12 13:09:00,92.1,49.0,29.96,NW,313,2.0,0.0,23,0.00,,---,0.00,VWS V14.01,2013-05-12 20:09:00,
2013-05-12 13:14:00,92.5,50.5,29.96,North,350,0.0,0.0,24,0.00,,---,0.00,VWS V14.01,2013-05-12 20:14:00,
2013-05-12 13:19:00,93.0,50.9,29.96,SE,128,1.0,0.0,24,0.00,,---,0.00,VWS V14.01,2013-05-12 20:19:00,
2013-05-12 13:24:00,92.8,49.6,29.96,NE,49,2.0,0.0,23,0.00,,---,0.00,VWS V14.01,2013-05-12 20:24:00,
2013-05-12 13:29:00,92.6,48.2,29.96,SE,142,0.0,0.0,22,0.00,,---,0.00,VWS V14.01,2013-05-12 20:29:00,
2013-05-12 13:34:00,92.8,49.6,29.95,North,349,0.0,0.0,23,0.00,,---,0.00,VWS V14.01,2013-05-12 20:34:00,
2013-05-12 13:39:00,92.8,48.4,29.95,West,270,0.0,0.0,22,0.00,,---,0.00,VWS V14.01,2013-05-12 20:39:00,
2013-05-12 13:44:00,92.9,47.2,29.95,East,89,0.0,0.0,21,0.00,,---,0.00,VWS V14.01,2013-05-12 20:44:00,
2013-05-12 13:49:00,93.0,47.3,29.95,NE,36,0.0,0.0,21,0.00,,---,0.00,VWS V14.01,2013-05-12 20:49:00,
2013-05-12 13:54:00,93.0,46.0,29.95,SSE,156,0.0,0.0,20,0.00,,---,0.00,VWS V14.01,2013-05-12 20:54:00,
2013-05-12 13:59:00,92.9,47.2,29.95,South,191,0.0,0.0,21,0.00,,---,0.00,VWS V14.01,2013-05-12 20:59:00,
2013-05-12 14:05:00,93.0,48.6,29.95,WNW,291,2.0,0.0,22,0.00,,---,0.00,VWS V14.01,2013-05-12 21:05:00,
2013-05-12 14:10:00,93.0,48.6,29.94,South,178,0.0,0.0,22,0.00,,---,0.00,VWS V14.01,2013-05-12 21:10:00,
2013-05-12 14:15:00,93.4,50.1,29.94,NNE,14,1.0,0.0,23,0.00,,---,0.00,VWS V14.01,2013-05-12 21:15:00,
2013-05-12 14:20:00,93.8,46.7,29.94,NW,311,1.0,0.0,20,0.00,,---,0.00,VWS V14.01,2013-05-12 21:20:00,
2013-05-12 14:25:00,93.9,48.1,29.94,West,276,2.0,0.0,21,0.00,,---,0.00,VWS V14.01,2013-05-12 21:25:00,
2013-05-12 14:30:00,94.2,48.3,29.94,NNW,338,2.0,0.0,21,0.00,,---,0.00,VWS V14.01,2013-05-12 21:30:00,
2013-05-12 14:35:00,94.4,49.7,29.94,SSW,202,0.0,0.0,22,0.00,,---,0.00,VWS V14.01,2013-05-12 21:35:00,
2013-05-12 14:40:00,94.3,47.1,29.94,NNW,338,0.0,0.0,20,0.00,,---,0.00,VWS V14.01,2013-05-12 21:40:00,
2013-05-12 14:45:00,94.4,48.5,29.93,NNE,32,2.0,0.0,21,0.00,,---,0.00,VWS V14.01,2013-05-12 21:45:00,
2013-05-12 14:50:00,94.8,51.3,29.93,NW,307,0.0,0.0,23,0.00,,---,0.00,VWS V14.01,2013-05-12 21:50:00,
2013-05-12 14:55:00,94.9,48.9,29.93,WNW,291,2.0,0.0,21,0.00,,---,0.00,VWS V14.01,2013-05-12 21:55:00,
2013-05-12 15:00:00,94.7,48.7,29.93,NNW,342,1.0,0.0,21,0.00,,---,0.00,VWS V14.01,2013-05-12 22:00:00,
2013-05-12 15:05:00,94.7,47.4,29.93,WNW,292,0.0,0.0,20,0.00,,---,0.00,VWS V14.01,2013-05-12 22:05:00,
2013-05-12 15:10:00,94.8,48.8,29.93,West,264,0.0,0.0,21,0.00,,---,0.00,VWS V14.01,2013-05-12 22:10:00,
2013-05-12 15:15:00,94.6,47.4,29.92,NNW,335,0.0,0.0,20,0.00,,---,0.00,VWS V14.01,2013-05-12 22:15:00,
2013-05-12 15:20:00,94.5,47.3,29.92,West,276,2.0,0.0,20,0.00,,---,0.00,VWS V14.01,2013-05-12 22:20:00,
2013-05-12 15:25:00,94.3,45.8,29.92,North,349,0.0,0.0,19,0.00,,---,0.00,VWS V14.01,2013-05-12 22:25:00,
2013-05-12 15:30:00,94.0,45.5,29.92,NW,323,1.0,0.0,19,0.00,,---,0.00,VWS V14.01,2013-05-12 22:30:00,
2013-05-12 15:36:00,93.7,45.3,29.91,West,266,0.0,0.0,19,0.00,,---,0.00,VWS V14.01,2013-05-12 22:36:00,
2013-05-12 15:41:00,93.6,46.5,29.91,West,275,0.0,0.0,20,0.00,,---,0.00,VWS V14.01,2013-05-12 22:41:00,
2013-05-12 15:46:00,93.5,46.5,29.91,NW,309,0.0,0.0,20,0.00,,---,0.00,VWS V14.01,2013-05-12 22:46:00,
2013-05-12 15:51:00,93.5,45.1,29.91,WNW,288,1.0,0.0,19,0.00,,---,0.00,VWS V14.01,2013-05-12 22:51:00,
2013-05-12 15:56:00,93.6,45.2,29.91,SW,227,2.0,0.0,19,0.00,,---,0.00,VWS V14.01,2013-05-12 22:56:00,
2013-05-12 16:01:00,93.5,49.0,29.90,East,85,0.0,0.0,22,0.00,,---,0.00,VWS V14.01,2013-05-12 23:01:00,
2013-05-12 16:06:00,93.4,45.0,29.90,SSW,213,0.0,0.0,19,0.00,,---,0.00,VWS V14.01,2013-05-12 23:06:00,
2013-05-12 16:11:00,93.1,44.8,29.90,South,189,0.0,0.0,19,0.00,,---,0.00,VWS V14.01,2013-05-12 23:11:00,
2013-05-12 16:16:00,92.9,47.2,29.90,SW,214,0.0,0.0,21,0.00,,---,0.00,VWS V14.01,2013-05-12 23:16:00,
2013-05-12 16:21:00,92.8,45.9,29.90,WSW,243,0.0,0.0,20,0.00,,---,0.00,VWS V14.01,2013-05-12 23:21:00,
2013-05-12 16:26:00,92.8,44.5,29.90,NE,36,0.0,0.0,19,0.00,,---,0.00,VWS V14.01,2013-05-12 23:26:00,
2013-05-12 16:31:00,92.9,46.0,29.90,SE,134,0.0,0.0,20,0.00,,---,0.00,VWS V14.01,2013-05-12 23:31:00,
2013-05-12 16:36:00,92.9,44.6,29.89,North,5,0.0,0.0,19,0.00,,---,0.00,VWS V14.01,2013-05-12 23:36:00,
2013-05-12 16:41:00,92.8,44.5,29.89,SE,136,0.0,0.0,19,0.00,,---,0.00,VWS V14.01,2013-05-12 23:41:00,
2013-05-12 16:46:00,92.6,45.7,29.89,NNE,12,0.0,0.0,20,0.00,,---,0.00,VWS V14.01,2013-05-12 23:46:00,
2013-05-12 16:51:00,92.4,44.2,29.89,ESE,106,0.0,0.0,19,0.00,,---,0.00,VWS V14.01,2013-05-12 23:51:00,
2013-05-12 16:56:00,92.3,45.5,29.89,ESE,107,0.0,0.0,20,0.00,,---,0.00,VWS V14.01,2013-05-12 23:56:00,
2013-05-12 17:01:00,92.2,45.4,29.89,ESE,115,1.0,0.0,20,0.00,,---,0.00,VWS V14.01,2013-05-13 00:01:00,
2013-05-12 17:06:00,92.2,44.0,29.89,SW,225,0.0,0.0,19,0.00,,---,0.00,VWS V14.01,2013-05-13 00:06:00,
2013-05-12 17:12:00,92.2,45.4,29.89,WNW,294,0.0,0.0,20,0.00,,---,0.00,VWS V14.01,2013-05-13 00:12:00,
2013-05-12 17:17:00,92.1,44.0,29.88,WNW,282,0.0,0.0,19,0.00,,---,0.00,VWS V14.01,2013-05-13 00:17:00,
2013-05-12 17:22:00,92.0,43.9,29.88,West,279,0.0,0.0,19,0.00,,---,0.00,VWS V14.01,2013-05-13 00:22:00,
2013-05-12 17:27:00,92.0,46.5,29.88,NW,306,0.0,0.0,21,0.00,,---,0.00,VWS V14.01,2013-05-13 00:27:00,
2013-05-12 17:32:00,91.9,46.4,29.88,WSW,256,0.0,0.0,21,0.00,,---,0.00,VWS V14.01,2013-05-13 00:32:00,
2013-05-12 17:37:00,91.7,47.5,29.88,West,279,0.0,0.0,22,0.00,,---,0.00,VWS V14.01,2013-05-13 00:37:00,
2013-05-12 17:42:00,91.6,48.6,29.88,NW,314,0.0,0.0,23,0.00,,---,0.00,VWS V14.01,2013-05-13 00:42:00,
2013-05-12 17:47:00,91.5,48.5,29.88,SE,144,0.0,0.0,23,0.00,,---,0.00,VWS V14.01,2013-05-13 00:47:00,
2013-05-12 17:52:00,91.4,48.4,29.88,NW,308,0.0,0.0,23,0.00,,---,0.00,VWS V14.01,2013-05-13 00:52:00,
2013-05-12 17:57:00,91.3,48.3,29.87,WNW,300,0.0,0.0,23,0.00,,---,0.00,VWS V14.01,2013-05-13 00:57:00,
2013-05-12 18:02:00,91.1,45.8,29.88,WNW,302,0.0,0.0,21,0.00,,---,0.00,VWS V14.01,2013-05-13 01:02:00,
2013-05-12 18:07:00,90.9,46.8,29.87,NE,51,0.0,0.0,22,0.00,,---,0.00,VWS V14.01,2013-05-13 01:07:00,
2013-05-12 18:12:00,90.6,47.8,29.87,NE,51,0.0,0.0,23,0.00,,---,0.00,VWS V14.01,2013-05-13 01:12:00,
2013-05-12 18:17:00,90.3,45.1,29.87,SE,142,0.0,0.0,21,0.00,,---,0.00,VWS V14.01,2013-05-13 01:17:00,
2013-05-12 18:22:00,90.1,45.0,29.87,SE,134,0.0,0.0,21,0.00,,---,0.00,VWS V14.01,2013-05-13 01:22:00,
2013-05-12 18:27:00,89.8,47.1,29.86,NNE,25,0.0,0.0,23,0.00,,---,0.00,VWS V14.01,2013-05-13 01:27:00,
2013-05-12 18:32:00,89.4,46.8,29.86,WNW,298,0.0,0.0,23,0.00,,---,0.00,VWS V14.01,2013-05-13 01:32:00,
2013-05-12 18:37:00,89.1,45.3,29.86,WNW,300,0.0,0.0,22,0.00,,---,0.00,VWS V14.01,2013-05-13 01:37:00,
2013-05-12 18:42:00,88.8,49.5,29.86,NW,304,0.0,0.0,26,0.00,,---,0.00,VWS V14.01,2013-05-13 01:42:00,
2013-05-12 18:47:00,88.5,47.1,29.86,SSW,199,0.0,0.0,24,0.00,,---,0.00,VWS V14.01,2013-05-13 01:47:00,
2013-05-12 18:52:00,88.2,45.8,29.86,West,265,0.0,0.0,23,0.00,,---,0.00,VWS V14.01,2013-05-13 01:52:00,
2013-05-12 18:57:00,87.9,48.8,29.86,South,180,0.0,0.0,26,0.00,,---,0.00,VWS V14.01,2013-05-13 01:57:00,
2013-05-12 19:03:00,87.6,48.5,29.86,South,179,0.0,0.0,26,0.00,,---,0.00,VWS V14.01,2013-05-13 02:03:00,
2013-05-12 19:08:00,87.2,49.2,29.86,South,174,0.0,0.0,27,0.00,,---,0.00,VWS V14.01,2013-05-13 02:08:00,
2013-05-12 19:13:00,86.8,46.8,29.86,West,279,0.0,0.0,25,0.00,,---,0.00,VWS V14.01,2013-05-13 02:13:00,
2013-05-12 19:18:00,86.5,48.6,29.86,WNW,290,0.0,0.0,27,0.00,,---,0.00,VWS V14.01,2013-05-13 02:18:00,
2013-05-12 19:23:00,86.0,49.1,29.86,NE,38,0.0,0.0,28,0.00,,---,0.00,VWS V14.01,2013-05-13 02:23:00,
2013-05-12 19:28:00,85.6,50.7,29.86,WNW,302,0.0,0.0,30,0.00,,---,0.00,VWS V14.01,2013-05-13 02:28:00,
2013-05-12 19:33:00,85.1,51.1,29.86,WNW,302,0.0,0.0,31,0.00,,---,0.00,VWS V14.01,2013-05-13 02:33:00,
2013-05-12 19:38:00,84.6,50.7,29.86,NW,309,0.0,0.0,31,0.00,,---,0.00,VWS V14.01,2013-05-13 02:38:00,
2013-05-12 19:43:00,84.1,50.2,29.86,NW,309,0.0,0.0,31,0.00,,---,0.00,VWS V14.01,2013-05-13 02:43:00,
2013-05-12 19:48:00,83.5,51.4,29.86,NW,304,0.0,0.0,33,0.00,,---,0.00,VWS V14.01,2013-05-13 02:48:00,
2013-05-12 19:53:00,83.0,50.1,29.86,NW,304,0.0,0.0,32,0.00,,---,0.00,VWS V14.01,2013-05-13 02:53:00,
2013-05-12 19:58:00,82.4,50.4,29.86,NW,304,0.0,0.0,33,0.00,,---,0.00,VWS V14.01,2013-05-13 02:58:00,
2013-05-12 20:03:00,81.8,51.5,29.86,NW,305,0.0,0.0,35,0.00,,---,0.00,VWS V14.01,2013-05-13 03:03:00,
2013-05-12 20:08:00,81.3,51.8,29.86,NW,305,0.0,0.0,36,0.00,,---,0.00,VWS V14.01,2013-05-13 03:08:00,
2013-05-12 20:13:00,80.6,51.2,29.86,NW,319,0.0,0.0,36,0.00,,---,0.00,VWS V14.01,2013-05-13 03:13:00,
2013-05-12 20:18:00,79.9,52.8,29.86,NW,319,0.0,0.0,39,0.00,,---,0.00,VWS V14.01,2013-05-13 03:18:00,
2013-05-12 20:23:00,79.3,52.9,29.86,NW,319,0.0,0.0,40,0.00,,---,0.00,VWS V14.01,2013-05-13 03:23:00,
2013-05-12 20:28:00,78.7,53.7,29.86,SSW,204,0.0,0.0,42,0.00,,---,0.00,VWS V14.01,2013-05-13 03:28:00,
2013-05-12 20:34:00,78.2,53.9,29.86,SSW,204,0.0,0.0,43,0.00,,---,0.00,VWS V14.01,2013-05-13 03:34:00,
2013-05-12 20:39:00,77.7,53.5,29.86,South,170,0.0,0.0,43,0.00,,---,0.00,VWS V14.01,2013-05-13 03:39:00,
2013-05-12 20:44:00,77.3,53.7,29.87,SSE,163,0.0,0.0,44,0.00,,---,0.00,VWS V14.01,2013-05-13 03:44:00,
2013-05-12 20:49:00,77.0,53.4,29.87,SSE,152,0.0,0.0,44,0.00,,---,0.00,VWS V14.01,2013-05-13 03:49:00,
2013-05-12 20:54:00,76.7,53.2,29.87,SSE,152,0.0,0.0,44,0.00,,---,0.00,VWS V14.01,2013-05-13 03:54:00,
2013-05-12 20:59:00,76.5,53.0,29.87,East,97,0.0,0.0,44,0.00,,---,0.00,VWS V14.01,2013-05-13 03:59:00,
2013-05-12 21:01:00,76.5,53.0,29.87,East,97,0.0,0.0,44,0.00,,---,0.00,VWS V14.01,2013-05-13 04:01:00,
2013-05-12 21:02:00,76.4,52.9,29.87,East,89,0.0,0.0,44,0.00,,---,0.00,VWS V14.01,2013-05-13 04:02:00,
2013-05-12 21:07:00,76.3,53.4,29.87,SSE,150,0.0,0.0,45,0.00,,---,0.00,VWS V14.01,2013-05-13 04:07:00,
2013-05-12 21:12:00,76.1,53.8,29.88,SSE,150,0.0,0.0,46,0.00,,---,0.00,VWS V14.01,2013-05-13 04:12:00,
2013-05-12 21:17:00,75.8,54.2,29.88,SSE,150,0.0,0.0,47,0.00,,---,0.00,VWS V14.01,2013-05-13 04:17:00,
2013-05-12 21:22:00,75.6,54.0,29.88,SSE,150,0.0,0.0,47,0.00,,---,0.00,VWS V14.01,2013-05-13 04:22:00,
2013-05-12 21:28:00,75.3,54.3,29.88,SSE,150,0.0,0.0,48,0.00,,---,0.00,VWS V14.01,2013-05-13 04:28:00,
2013-05-12 21:33:00,74.9,55.0,29.88,SSE,150,0.0,0.0,50,0.00,,---,0.00,VWS V14.01,2013-05-13 04:33:00,
2013-05-12 21:38:00,74.6,54.8,29.88,SE,140,0.0,0.0,50,0.00,,---,0.00,VWS V14.01,2013-05-13 04:38:00,
2013-05-12 21:43:00,74.2,54.4,29.88,SE,126,0.0,0.0,50,0.00,,---,0.00,VWS V14.01,2013-05-13 04:43:00,
2013-05-12 21:48:00,73.8,54.0,29.88,SE,125,0.0,0.0,50,0.00,,---,0.00,VWS V14.01,2013-05-13 04:48:00,
2013-05-12 21:53:00,73.6,53.8,29.89,SE,126,0.0,0.0,50,0.00,,---,0.00,VWS V14.01,2013-05-13 04:53:00,
2013-05-12 21:58:00,73.4,53.7,29.89,SE,126,0.0,0.0,50,0.00,,---,0.00,VWS V14.01,2013-05-13 04:58:00,
2013-05-12 22:03:00,73.3,54.1,29.89,SE,126,0.0,0.0,51,0.00,,---,0.00,VWS V14.01,2013-05-13 05:03:00,
2013-05-12 22:08:00,73.1,53.9,29.89,SE,126,0.0,0.0,51,0.00,,---,0.00,VWS V14.01,2013-05-13 05:08:00,
2013-05-12 22:13:00,72.9,53.7,29.89,SE,125,0.0,0.0,51,0.00,,---,0.00,VWS V14.01,2013-05-13 05:13:00,
2013-05-12 22:18:00,72.5,53.4,29.89,SE,126,0.0,0.0,51,0.00,,---,0.00,VWS V14.01,2013-05-13 05:18:00,
2013-05-12 22:23:00,72.1,53.5,29.89,SE,125,0.0,0.0,52,0.00,,---,0.00,VWS V14.01,2013-05-13 05:23:00,
2013-05-12 22:28:00,71.6,54.1,29.89,SE,126,0.0,0.0,54,0.00,,---,0.00,VWS V14.01,2013-05-13 05:28:00,
2013-05-12 22:33:00,71.3,53.3,29.89,SE,125,0.0,0.0,53,0.00,,---,0.00,VWS V14.01,2013-05-13 05:33:00,
2013-05-12 22:38:00,71.0,53.5,29.89,SE,125,0.0,0.0,54,0.00,,---,0.00,VWS V14.01,2013-05-13 05:38:00,
2013-05-12 22:43:00,70.9,52.9,29.88,SE,125,0.0,0.0,53,0.00,,---,0.00,VWS V14.01,2013-05-13 05:43:00,
2013-05-12 22:48:00,70.7,52.2,29.88,SE,126,0.0,0.0,52,0.00,,---,0.00,VWS V14.01,2013-05-13 05:48:00,
2013-05-12 22:54:00,70.5,52.0,29.88,SE,126,0.0,0.0,52,0.00,,---,0.00,VWS V14.01,2013-05-13 05:54:00,
2013-05-12 22:59:00,70.3,51.9,29.88,SE,126,0.0,0.0,52,0.00,,---,0.00,VWS V14.01,2013-05-13 05:59:00,
2013-05-12 23:04:00,70.1,51.7,29.88,SE,125,0.0,0.0,52,0.00,,---,0.00,VWS V14.01,2013-05-13 06:04:00,
2013-05-12 23:09:00,69.9,51.5,29.88,SE,126,0.0,0.0,52,0.00,,---,0.00,VWS V14.01,2013-05-13 06:09:00,
2013-05-12 23:14:00,69.8,50.9,29.88,SE,125,0.0,0.0,51,0.00,,---,0.00,VWS V14.01,2013-05-13 06:14:00,
2013-05-12 23:19:00,69.7,51.8,29.88,SE,125,0.0,0.0,53,0.00,,---,0.00,VWS V14.01,2013-05-13 06:19:00,
2013-05-12 23:24:00,69.6,51.2,29.88,SE,126,0.0,0.0,52,0.00,,---,0.00,VWS V14.01,2013-05-13 06:24:00,
2013-05-12 23:29:00,69.5,51.1,29.88,SE,126,0.0,0.0,52,0.00,,---,0.00,VWS V14.01,2013-05-13 06:29:00,
2013-05-12 23:34:00,69.5,51.6,29.88,SE,126,0.0,0.0,53,0.00,,---,0.00,VWS V14.01,2013-05-13 06:34:00,
2013-05-12 23:39:00,69.3,50.9,29.87,SE,126,0.0,0.0,52,0.00,,---,0.00,VWS V14.01,2013-05-13 06:39:00,
2013-05-12 23:44:00,69.0,51.2,29.88,SE,125,0.0,0.0,53,0.00,,---,0.00,VWS V14.01,2013-05-13 06:44:00,
2013-05-12 23:49:00,68.8,52.0,29.88,SE,125,0.0,0.0,55,0.00,,---,0.00,VWS V14.01,2013-05-13 06:49:00,
2013-05-12 23:54:00,68.5,52.2,29.87,SE,126,0.0,0.0,56,0.00,,---,0.00,VWS V14.01,2013-05-13 06:54:00,
2013-05-12 23:59:00,68.3,52.0,29.87,SE,126,0.0,0.0,56,0.00,,---,0.00,VWS V14.01,2013-05-13 06:59:00,